User: anonymous   Login
Location: Cutler
(25.6150°N, 80.3110°W)
Time: 09:41:35
(UTC-05:00)
Language:

Vanguard 2 - Orbit

View from above orbital plane
View from above orbital plane
View from above satellite
View from above satellite

Ground track
Ground track

The orbit data is extracted from the following two-line orbital elements,

1 00011U 59001A   17327.22563486  .00000405  00000-0  21465-3 0  9993
2 00011  32.8713 333.6617 1468724   1.3609 359.0428 11.85504845505459
Epoch (UTC): 23 November 2017 05:24:54
Eccentricity: 0.1468724
inclination: 32.8713°
perigee height: 553 km
apogee height: 2939 km
right ascension of ascending node: 333.6617°
argument of perigee: 1.3609°
revolutions per day: 11.85504845
mean anomaly at epoch: 359.0428°
orbit number at epoch: 50545

The dashed part of the orbit path shows where the satellite is in the earth's shadow,  

DLR